Temperature
16 16 15 15 15 15 15 15 14 14 15 16 15 15 15 15 15 15 15 16 16 16 16 16 16 16 16 16 16 16 16 16 16 16 16 16 15 15
15 15 15 15 15 15 14 14 14 14 14 15 15 15 15 15 15 15 15 15 15 16 16 16 16 16 16 16 16 16 16 16 16 15 16 16 15 15
15 15 15 15 15 14 14 14 14 14 14 15 15 15 15 15 15 15 15 15 15 15 15 15 16 16 16 16 16 16 16 16 15 15 15 15 15 15
15 15 15 15 15 14 14 13 14 14 14 14 14 14 14 15 15 15 14 14 15 15 15 16 16 16 16 16 16 16 16 16 15 15 15 15 15 15
15 15 15 15 14 14 14 13 13 13 13 14 14 14 14 14 14 14 14 14 15 15 16 16 16 16 16 16 16 16 16 15 15 15 15 14 14 14
15 15 15 15 14 14 14 14 14 14 14 14 14 14 14 14 14 14 14 14 15 15 15 16 16 16 16 16 16 15 15 15 15 15 14 14 14 14
15 15 15 15 15 15 14 14 14 14 14 14 14 14 13 13 14 14 14 14 14 15 15 15 15 16 16 16 16 15 15 15 15 15 14 14 14 14
14 15 14 14 15 14 14 14 14 14 14 13 13 13 13 13 13 13 13 14 14 14 14 14 14 14 14 14 15 15 15 15 15 14 14 14 14 14
14 14 14 14 14 14 14 14 14 14 14 13 13 13 13 13 13 13 13 13 13 13 13 14 14 13 13 13 13 14 14 14 14 14 14 13 13 13
14 14 14 14 14 14 14 14 14 13 14 13 13 13 13 13 13 13 13 13 13 13 13 13 13 13 13 13 13 13 13 13 13 13 13 13 13 13
13 13 13 13 13 14 14 14 14 13 13 14 14 13 13 13 13 13 13 13 13 13 13 12 12 12 12 12 12 12 12 12 12 12 12 12 12 13
12 12 12 12 13 13 13 13 13 13 13 14 14 14 14 13 13 13 13 13 13 12 12 12 12 12 12 12 12 12 12 12 12 12 11 11 12 12
11 11 11 11 12 12 13 13 13 13 13 13 14 13 13 13 13 13 13 13 13 12 12 12 12 12 11 11 12 11 11 11 11 11 11 11 11 11
10 10 10 11 11 12 12 12 13 13 13 13 13 13 13 13 12 12 12 12 12 12 12 12 12 11 11 11 11 11 11 11 11 11 11 11 11 11
9 9 10 10 11 11 12 12 12 12 13 13 13 13 13 12 12 12 12 12 12 12 11 11 11 11 11 11 11 11 10 10 10 10 10 10 10 10
9 10 10 10 11 11 11 12 12 12 12 12 12 12 12 12 12 12 11 11 11 11 11 11 11 10 10 10 10 10 10 9 9 9 10 10 9 9
9 10 10 10 10 11 11 11 11 12 12 12 12 12 11 11 11 11 11 11 11 10 10 10 10 10 10 10 9 9 9 9 9 9 9 9 9 9
10 9 9 10 10 10 10 11 11 11 11 11 11 11 11 11 11 11 10 10 10 10 10 9 9 10 10 9 9 9 9 9 9 9 9 9 8 8
9 9 9 9 10 10 10 10 11 11 11 11 11 10 10 10 10 10 10 10 9 9 9 8 8 8 8 8 8 8 8 8 8 8 8 8 7 7
9 9 9 9 9 9 10 10 10 10 10 10 10 10 10 10 10 9 9 9 8 8 8 7 7 7 7 7 7 7 7 7 7 7 7 7 6 6
8 8 9 9 9 9 9 9 9 9 9 9 9 9 9 9 8 8 8 8 7 7 7 6 6 6 6 6 6 6 6 6 6 6 6 6 6 5
8 8 8 8 9 9 9 9 9 9 9 9 8 8 8 8 7 7 7 7 6 6 6 6 5 6 6 6 5 5 5 5 5 5 5 5 5 4
8 8 9 9 9 8 8 8 8 8 8 8 8 7 7 7 7 7 6 6 6 6 5 5 5 5 5 5 5 5 5 5 5 5 4 4 4 4
Wind_Speed
2 2 2 2 2 3 3 4 5 3 4 6 5 4 6 10 16 18 15 19 19 17 15 14 12 11 10 10 9 8 7 5 5 5 6 6 7 7
2 2 2 2 3 4 4 4 5 5 4 3 4 2 1 3 12 15 16 20 22 21 19 18 16 15 14 13 11 10 9 8 7 7 7 7 7 8
3 5 7 6 4 3 3 3 4 4 5 4 3 2 2 1 4 8 10 12 17 22 22 21 20 18 17 15 14 13 12 11 9 8 7 7 8 8
5 4 4 2 2 0 1 2 3 4 5 5 4 3 4 3 3 4 5 9 12 20 24 23 21 20 19 18 17 16 15 13 12 10 9 9 8 8
4 2 2 4 3 1 1 2 2 3 4 4 4 4 4 3 3 4 5 5 7 11 20 22 22 21 21 21 20 19 18 16 14 13 12 10 9 9
3 1 2 2 4 3 2 2 2 2 2 3 4 3 3 3 3 4 5 5 5 4 9 14 18 21 22 22 22 21 20 19 18 17 15 14 12 10
4 3 1 6 7 4 2 3 3 3 1 1 1 1 2 2 3 3 4 4 3 2 2 5 7 9 14 19 22 22 22 22 21 19 18 16 15 13
3 3 1 4 6 6 4 4 2 2 2 2 1 1 2 2 1 1 1 1 2 2 1 2 2 4 6 11 16 22 24 23 22 20 19 18 16 15
3 3 2 1 3 3 6 8 7 6 4 1 2 2 1 1 1 1 1 1 1 1 2 3 2 3 3 4 6 9 16 18 18 18 17 17 16 15
3 4 3 2 1 2 2 2 2 5 6 3 3 4 4 4 3 2 1 0 1 1 1 2 3 3 3 6 9 7 2 4 7 10 12 13 14 14
4 3 3 2 5 4 3 3 4 1 3 4 5 4 3 2 2 2 2 1 1 1 2 1 2 3 2 3 6 8 7 5 5 6 8 9 10 10
7 5 8 7 7 7 4 3 3 3 2 2 2 2 1 2 1 0 0 1 1 1 2 1 2 3 2 2 2 4 4 4 4 5 6 6 6 5
6 4 4 7 7 6 5 2 2 3 3 3 3 3 3 3 2 1 1 2 2 1 1 1 1 2 2 3 3 2 2 2 3 4 4 4 5 6
5 4 2 4 4 4 3 1 2 4 2 1 2 3 2 2 2 2 2 4 4 3 4 2 1 0 1 2 3 3 3 3 3 2 2 2 5 8
4 4 4 4 5 5 5 5 3 2 1 1 2 2 2 3 3 3 3 3 4 4 4 2 1 0 1 2 3 3 3 2 0 1 2 2 2 3
5 4 3 3 3 4 2 3 3 2 2 2 3 3 2 3 3 2 2 2 2 1 0 1 2 2 2 3 3 4 4 3 4 3 3 3 4 4
5 4 3 2 2 2 2 2 2 2 3 3 4 4 4 4 4 3 3 4 4 3 4 4 6 5 2 2 2 4 5 5 5 5 4 4 4 5
8 6 7 7 6 6 5 5 5 5 5 5 5 5 5 5 5 5 5 5 5 5 5 5 6 6 5 7 9 6 5 5 5 6 5 4 4 5
10 9 9 9 8 8 7 7 7 6 6 6 6 6 6 6 6 6 7 6 5 5 5 5 6 5 5 4 5 10 5 4 5 5 5 4 4 3
8 8 9 8 8 8 8 7 7 7 7 7 7 6 6 6 6 5 5 5 4 5 5 5 4 4 3 3 2 3 8 5 4 5 5 5 4 5
7 7 8 8 7 7 7 7 7 7 7 7 6 6 6 5 5 4 4 6 5 5 5 5 4 5 3 3 3 3 3 6 6 3 4 4 4 4
6 7 7 8 7 7 7 6 6 7 7 6 6 5 5 5 5 5 5 5 4 5 5 4 5 5 4 4 4 3 3 2 3 5 4 3 2 3
5 6 6 6 6 6 6 6 7 5 5 5 5 4 4 4 4 4 4 5 5 5 4 4 5 5 4 4 4 4 6 5 4 4 4 5 2 3
Wind_Direction
34 57 132 201 230 243 231 204 199 231 249 241 243 234 207 193 183 186 185 195 200 203 205 205 208 212 217 217 216 213 212 218 232 248 260 270 281 292
79 4 300 250 234 234 234 230 211 208 238 253 227 233 217 182 179 188 196 201 205 206 207 209 211 215 220 223 222 219 217 221 230 240 250 262 273 282
245 221 230 228 223 225 225 225 228 217 232 258 241 235 213 201 176 216 217 202 206 210 211 211 212 216 221 225 227 226 226 227 232 241 251 261 270 278
274 265 245 199 171 207 278 261 248 233 227 250 251 238 234 226 207 231 238 220 207 214 214 215 215 217 221 226 229 231 231 232 234 240 249 258 268 279
258 285 6 61 67 38 326 308 286 267 228 228 248 235 237 233 235 246 251 253 234 218 212 217 219 221 224 227 231 233 234 235 236 238 242 250 261 271
298 247 193 110 84 43 22 8 341 311 259 236 249 243 235 229 211 230 246 247 238 220 204 213 221 225 228 230 234 236 236 237 238 239 240 243 247 255
324 325 101 115 111 95 50 7 357 340 339 297 279 270 250 221 212 207 231 258 264 239 219 211 210 219 229 236 238 240 238 237 237 238 240 242 243 246
300 320 98 158 155 167 197 221 237 344 10 10 331 299 289 254 235 199 215 251 280 321 326 279 230 236 232 228 234 235 235 234 235 236 238 241 243 244
296 305 313 326 170 204 221 227 233 225 224 348 2 357 19 56 115 142 181 202 256 334 33 306 313 302 303 317 315 270 240 236 238 239 241 242 243 243
286 274 271 282 303 359 335 264 243 195 206 202 92 76 67 51 60 67 96 32 304 348 76 314 348 353 8 20 31 33 5 270 263 260 257 253 249 247
338 342 347 359 50 27 347 340 9 56 171 129 110 108 102 72 48 46 39 21 315 346 53 3 345 340 4 7 20 30 26 7 334 308 293 281 267 258
350 24 50 55 50 32 4 8 21 9 28 137 149 160 150 159 178 201 94 58 8 36 41 27 3 0 1 345 339 356 3 355 331 311 300 291 276 254
346 8 43 46 41 27 5 16 54 345 351 64 90 83 68 75 91 95 81 84 82 91 149 122 41 20 0 320 312 288 279 290 309 310 302 276 250 231
315 325 5 12 354 327 310 340 351 336 331 59 95 93 82 70 72 74 65 72 84 119 154 149 98 35 347 328 313 310 286 261 261 293 311 280 260 249
305 309 307 308 313 298 251 239 259 265 207 115 110 99 83 75 69 53 44 68 82 99 124 138 117 5 342 303 309 318 323 318 320 349 340 308 272 254
340 323 288 276 287 296 291 209 224 227 142 120 112 104 90 76 64 49 39 35 65 35 229 212 238 241 279 286 300 316 337 346 354 345 337 326 330 351
356 10 26 26 9 1 20 66 90 94 84 78 89 84 76 71 55 38 31 36 52 40 15 358 350 334 308 321 358 10 20 18 6 356 357 353 8 41
34 34 33 30 32 40 52 54 54 61 72 75 74 73 71 69 54 35 33 44 47 39 32 15 9 6 11 42 42 43 31 11 356 358 6 5 15 57
42 38 37 37 38 43 47 53 53 50 57 62 61 59 60 58 56 52 39 34 33 29 28 25 27 28 21 359 13 43 33 8 359 1 2 2 356 41
38 36 35 36 40 43 43 45 46 44 48 53 53 54 58 62 59 55 51 33 23 20 17 21 29 22 357 308 311 33 42 33 14 3 353 348 15 82
33 31 28 30 34 36 37 43 48 48 47 48 47 46 51 59 56 49 49 36 30 23 16 1 348 343 323 354 17 35 35 46 57 46 1 6 7 14
38 37 31 28 25 25 29 38 49 49 45 44 39 37 38 48 50 46 40 35 27 18 4 354 359 10 21 31 37 35 20 14 37 47 57 62 49 16
43 50 41 28 23 20 24 34 45 47 45 42 36 30 35 40 42 44 36 39 31 12 7 15 6 8 17 34 52 43 27 17 8 14 8 9 351 311
Height
1531 1532 1532 1532 1533 1533 1534 1535 1536 1536 1536 1536 1537 1537 1538 1539 1539 1540 1541 1542 1543 1544 1545 1546 1547 1548 1550 1550 1550 1550 1550 1550 1549 1548 1547 1546 1545 1543
1527 1528 1529 1529 1530 1530 1530 1531 1531 1532 1532 1532 1533 1534 1535 1535 1536 1537 1538 1539 1540 1541 1542 1543 1544 1545 1546 1547 1548 1548 1548 1548 1548 1547 1546 1545 1543 1542
1525 1525 1526 1526 1527 1527 1527 1527 1527 1528 1528 1529 1531 1531 1531 1532 1532 1533 1534 1535 1536 1538 1539 1540 1541 1542 1543 1544 1545 1545 1545 1546 1545 1545 1544 1543 1542 1540
1522 1523 1524 1525 1525 1525 1524 1524 1524 1524 1525 1525 1526 1527 1527 1528 1528 1529 1530 1532 1533 1534 1536 1537 1538 1539 1540 1541 1541 1542 1543 1543 1543 1542 1541 1540 1539 1538
1520 1521 1522 1523 1523 1522 1521 1521 1520 1521 1521 1521 1522 1522 1523 1523 1524 1524 1526 1528 1530 1531 1532 1533 1534 1535 1535 1536 1537 1538 1538 1539 1539 1539 1538 1537 1536 1535
1518 1519 1520 1521 1521 1521 1520 1519 1518 1518 1518 1518 1518 1518 1518 1519 1519 1520 1522 1524 1526 1527 1528 1529 1530 1530 1531 1531 1532 1532 1533 1534 1534 1534 1534 1533 1532 1531
1516 1517 1518 1519 1519 1520 1519 1518 1517 1516 1516 1515 1515 1515 1515 1515 1516 1517 1518 1520 1522 1523 1524 1524 1525 1525 1525 1526 1526 1526 1527 1528 1528 1529 1529 1529 1528 1527
1514 1515 1516 1517 1518 1518 1518 1518 1517 1516 1515 1514 1514 1514 1513 1513 1513 1514 1515 1517 1518 1520 1520 1521 1520 1519 1519 1520 1520 1521 1521 1522 1522 1523 1523 1523 1523 1522
1512 1513 1514 1515 1516 1517 1517 1517 1517 1516 1516 1515 1514 1513 1513 1512 1512 1512 1513 1515 1515 1516 1516 1516 1517 1516 1515 1515 1514 1515 1515 1516 1516 1517 1517 1517 1517 1517
1510 1510 1511 1512 1513 1514 1515 1516 1516 1516 1515 1515 1514 1513 1513 1513 1512 1513 1514 1514 1515 1515 1514 1514 1514 1513 1512 1511 1511 1510 1510 1511 1511 1512 1512 1512 1512 1511
1508 1508 1508 1508 1509 1511 1513 1513 1514 1515 1515 1514 1514 1513 1513 1512 1513 1513 1514 1514 1514 1514 1513 1513 1512 1511 1510 1509 1508 1508 1508 1508 1508 1508 1507 1507 1507 1506
1506 1505 1505 1505 1506 1508 1509 1510 1512 1513 1513 1513 1514 1513 1513 1513 1513 1513 1513 1513 1513 1513 1512 1512 1511 1510 1509 1508 1508 1507 1506 1506 1505 1505 1504 1503 1502 1502
1503 1502 1502 1502 1503 1504 1506 1508 1509 1511 1512 1512 1512 1513 1513 1513 1513 1513 1513 1513 1513 1513 1513 1512 1511 1510 1510 1509 1508 1508 1507 1505 1504 1503 1502 1501 1500 1499
1500 1500 1499 1499 1500 1501 1503 1505 1507 1509 1510 1511 1512 1512 1512 1513 1513 1513 1514 1513 1513 1513 1513 1513 1512 1511 1510 1509 1508 1507 1506 1505 1503 1502 1501 1499 1498 1497
1498 1497 1496 1496 1497 1498 1500 1502 1505 1507 1509 1510 1511 1512 1513 1513 1514 1514 1514 1514 1514 1513 1513 1513 1512 1511 1510 1509 1507 1506 1505 1504 1503 1501 1500 1498 1496 1494
1497 1496 1495 1495 1496 1497 1498 1500 1503 1506 1508 1509 1511 1512 1513 1513 1514 1514 1514 1514 1514 1513 1513 1513 1512 1511 1509 1508 1507 1505 1504 1503 1501 1500 1498 1497 1495 1493
1498 1497 1496 1496 1496 1497 1499 1500 1503 1505 1507 1509 1511 1512 1513 1514 1515 1515 1515 1514 1514 1513 1513 1512 1511 1509 1508 1507 1505 1504 1503 1501 1500 1498 1496 1495 1493 1491
1501 1499 1499 1499 1499 1500 1501 1502 1504 1506 1508 1510 1512 1513 1514 1515 1515 1515 1514 1514 1513 1512 1511 1510 1508 1507 1507 1505 1505 1503 1501 1500 1498 1496 1494 1493 1491 1489
1504 1503 1503 1502 1503 1503 1504 1505 1507 1509 1510 1512 1513 1514 1515 1515 1515 1514 1514 1513 1513 1512 1510 1509 1507 1505 1504 1504 1503 1502 1500 1498 1496 1494 1492 1490 1488 1487
1509 1508 1508 1508 1507 1508 1508 1509 1510 1512 1512 1513 1514 1515 1515 1515 1514 1514 1513 1513 1512 1511 1509 1508 1506 1504 1503 1503 1502 1501 1499 1497 1495 1493 1491 1489 1487 1486
1514 1513 1513 1512 1512 1512 1512 1513 1513 1514 1514 1515 1515 1515 1515 1514 1514 1514 1513 1512 1511 1509 1508 1507 1505 1504 1502 1502 1501 1500 1498 1497 1495 1493 1491 1489 1487 1486
1517 1516 1516 1515 1515 1515 1514 1514 1515 1515 1515 1515 1515 1515 1515 1514 1514 1513 1512 1511 1509 1508 1507 1506 1504 1502 1501 1501 1500 1499 1498 1497 1496 1494 1492 1490 1489 1486
1518 1517 1517 1516 1516 1516 1515 1515 1515 1515 1515 1515 1515 1515 1515 1514 1513 1512 1511 1510 1509 1508 1507 1505 1504 1503 1502 1501 1501 1500 1499 1498 1497 1495 1494 1492 1490 1489